Simultaneous Nadir Overpasses (SNOs) Predictions

Prediction of SNOs between METOP-B and NOAA-19 Satellite Orbit:

Table of predicted SNOs for the next 14.0 days since TLE Epoch: 1/8/2018
Index Date (METOP-B) Time (METOP-B) Lat,Lon (METOP-B) SZA (METOP-B ) Date (NOAA-19) Time (NOAA-19) Lat,Lon (NOAA-19) SZA (NOAA-19 ) Distance(km) Time Diff (sec)
1 01/16/2018 13:54:11 -77.90, 159.19 81.25 01/16/2018 13:53:05 -77.92, 159.23 81.23 3.11 66
2 01/16/2018 14:44:50 77.92, -33.35 98.77 01/16/2018 14:44:02 77.93, -33.51 98.77 3.73 48
3 01/16/2018 15:35:32 -77.88, 133.76 81.29 01/16/2018 15:35:05 -77.91, 133.80 81.26 3.51 27
4 01/16/2018 16:26:11 77.91, -58.78 98.74 01/16/2018 16:26:01 77.87, -58.73 98.71 3.63 10
5 01/16/2018 17:16:54 -77.86, 108.34 81.32 01/16/2018 17:17:06 -77.90, 108.37 81.28 3.94 12
6 01/16/2018 18:07:33 77.89, -84.20 98.71 01/16/2018 18:08:02 77.86, -84.17 98.68 3.07 29
7 01/16/2018 18:58:15 -77.89, 83.12 81.31 01/16/2018 18:59:07 -77.89, 82.94 81.31 4.23 52
8 01/16/2018 19:48:55 77.87,-109.63 98.67 01/16/2018 19:50:03 77.85,-109.60 98.66 2.51 68




NCC Satellite Simultaneous Nadir Overpasses (SNOs) Prediction Service
